Regional Weather Roundup
Issued by NWS

Home | Current Version | Previous Version | Text Only | Print | Product List | Glossary On
Versions: 1 2 3 4 5 6 7 8 9 10 11 12 13 14 15 16 17 18 19 20 21 22 23 24 25 26 27 28 29 30 31 32 33 34 35 36 37 38 39 40 41 42 43 44 45 46 47 48 49 50
198
ASUS43 KMPX 241101
RWRMN
WEATHER ROUNDUP FOR MINNESOTA
NATIONAL WEATHER SERVICE TWIN CITIES/CHANHASSEN MN
500 AM CST FRI FEB 24 2017


NOTE: "FAIR" INDICATES FEW OR NO CLOUDS BELOW 12,000 FEET WITH NO
SIGNIFICANT WEATHER AND/OR OBSTRUCTIONS TO VISIBILITY. N/A MEANS
CURRENT SKY AND/OR WEATHER CONDITIONS ARE NOT AVAILABLE.

MNZ060>063-068>070-241200-
   Twin Cities Metro

CITY           SKY/WX    TMP DP  RH WIND       PRES   REMARKS
TWIN CITIES    CLOUDY    26  16  65 N22       29.84F WCI  12
ST PAUL        CLOUDY    27  18  69 N20G26    29.85F WCI  13
CRYSTAL        CLOUDY    25  14  63 N17G24    29.85F WCI  12
BLAINE         CLOUDY    27  18  69 N15       29.86F WCI  15
LAKEVILLE      CLOUDY    27  19  74 N16G23    29.80F WCI  14
EDEN PRAIRIE   CLOUDY    26  16  65 N16G23    29.81F WCI  14
SOUTH ST PAUL  CLOUDY    28  18  66 N13G20    29.83F WCI  18
LAKE ELMO      CLOUDY    28  19  69 N13G20    29.84F WCI  18
$$
MNZ001>005-007-008-013>017-022>024-027-028-241200-
   Northwest Minnesota

CITY           SKY/WX    TMP DP  RH WIND       PRES   REMARKS
BEMIDJI        CLEAR      8   4  83 NW6       30.04R WCI  -2
HALLOCK        PTCLDY    12   9  85 N6        30.13F WCI   3
ROSEAU         CLEAR      3   0  85 NW3       30.10F
WARROAD        CLEAR      3   0  85 NW6       30.10S WCI  -8
THIEF RVR FALL CLEAR     10   5  80 N8        30.11R WCI  -2
CROOKSTON      CLEAR     16   9  73 N7        30.14R WCI   6
FOSSTON        CLEAR     10   5  79 N8        30.07S WCI  -1
DETROIT LAKES  CLEAR     14   9  79 N3        30.05R
MOORHEAD       CLEAR     18  10  73 N16       30.11R WCI   3
PARK RAPIDS    CLOUDY    13   4  67 N10       30.01R WCI   0
MAHNOMEN       FAIR      14   6  72 N12       30.07R WCI   0
$$
MNZ006-009>011-018-025>026-241200-
   North Central Minnesota

CITY           SKY/WX    TMP DP  RH WIND       PRES   REMARKS
BAUDETTE       CLEAR      5   1  83 N7        30.07F WCI  -7
FLAG ISLAND    CLEAR      7   1  78 NW5       30.09F WCI  -2
INTL FALLS     CLEAR     11   3  70 N6        30.05R WCI   1
WASKISH        CLEAR      9   5  85 N3        30.06S
BIG FORK       CLOUDY    10   7  85 CALM      30.02S
LONGVILLE      CLOUDY    12   9  85 N5        30.01S WCI   4
GRAND RAPIDS   CLOUDY    13   8  81 N9        30.01R WCI   1
CRANE LAKE     CLOUDY    10   3  72 N3        30.05R
ORR            CLOUDY    10   3  72 CALM      29.99R
COOK           PTCLDY    12   7  79 N5        30.00S WCI   4
WALKER         FAIR      10   5  79 N5        30.03R WCI   2
$$
MNZ012-019>021-037-241200-
   Northeast Minnesota

CITY           SKY/WX    TMP DP  RH WIND       PRES   REMARKS
DULUTH         MOCLDY    18  13  80 N10       29.93R WCI   6
ELY            CLOUDY    12   3  67 CALM      29.97S
HIBBING        CLOUDY    14   9  80 N6        29.98R WCI   5
EVELETH        CLOUDY    17   6  60 N6        29.98S WCI   9
DULUTH HARBOR  CLOUDY    25  18  74 N18G24    29.98R WCI  11
TWO HARBORS    CLOUDY    21  12  68 N7        29.94S WCI  13
SILVER BAY     CLOUDY    18   9  68 N6        29.95S WCI   9
GRAND MARAIS     N/A     17   4  56 N6        30.02R WCI   9
G MARAIS ARPRT CLOUDY     9   0  66 N7G16     29.92R WCI  -3
$$
MNZ029>031-032-039>041-046>048-054>057-064-241200-
   West Central Minnesota

CITY           SKY/WX    TMP DP  RH WIND       PRES   REMARKS
FERGUS FALLS   PTCLDY    18   9  68 N13       30.08S WCI   4
WHEATON        CLOUDY    19  10  68 N20G28    30.05S WCI   4
MORRIS         CLOUDY    19  14  79 N22       29.97F WCI   3
ALEXANDRIA     CLOUDY    18  10  71 N18       29.95F WCI   2
ELBOW LAKE     FAIR      18  10  73 N15       30.01S WCI   3
WADENA         CLOUDY    14   9  79 N13       30.00R WCI   0
GLENWOOD       CLOUDY    19  12  73 N18G26    29.94S WCI   4
APPLETON       PTCLDY    23  16  74 N24       29.95F WCI   7
BENSON         CLOUDY    23  10  58 NE17G28   29.96S WCI   9
ORTONVILLE       N/A     19  12  73 N22G29    29.98F WCI   3
MADISON        CLOUDY    25  18  74 N23G30    29.96S WCI  10
WILLMAR        FAIR      23  16  74 N18       29.91S WCI   9
$$
MNZ033>034-036-042>043-049>051-058-059-241200-
   Central Minnesota

CITY           SKY/WX    TMP DP  RH WIND       PRES   REMARKS
ST CLOUD       MOCLDY    21  13  71 N15G22    29.92S WCI   8
SAUK CENTRE    FAIR      19  10  68 N17       29.94F WCI   4
PAYNESVILLE    CLOUDY    22  13  69 N18G32    29.90F WCI   7
AITKIN         CLOUDY    19  10  68 N10       29.96S WCI   8
PINE RIVER     CLOUDY    16   9  73 N13       30.03S WCI   2
BRAINERD       MOCLDY    17  10  74 N13       29.98S WCI   4
STAPLES        CLOUDY    16   9  73 N12       29.99R WCI   3
LONG PRAIRIE   FAIR      19  12  73 N16       29.95S WCI   5
LITTLE FALLS   CLOUDY    21  10  63 N7        29.96S WCI  13
LITCHFIELD     MOCLDY    25  16  68 N18G26    29.87F WCI  11
BUFFALO        CLOUDY    24  15  69 N17G25    29.89F WCI  10
MAPLE LAKE     CLOUDY    24  17  75 N14G23    29.90F WCI  12
HUTCHINSON     CLOUDY    25  17  73 N14G23    29.84F WCI  13
$$
MNZ037-044-045-052-053-241200-
   East Central Minnesota

CITY           SKY/WX    TMP DP  RH WIND       PRES   REMARKS
PRINCETON      CLOUDY    23  16  74 N15G22    29.92S WCI  10
MORA           CLOUDY    21  14  73 N5        29.95S WCI  15
CAMBRIDGE      MOCLDY    25  14  63 N9G16     29.90S WCI  15
RUSH CITY      CLOUDY    23  16  74 N13G21    29.92S WCI  11
MOOSE LAKE     MOCLDY    21  14  73 N9        29.94R WCI  11
HINCKLEY       PTSUNNY   23  16  74 N10       29.93S WCI  12
CLOQUET        CLOUDY    18  12  79 N8        29.94R WCI   7
MCGREGOR       CLOUDY    19  14  79 N12       29.97R WCI   7
$$
MNZ071>073-080-081-089-090-097-098-241200-
   Southwest Minnesota

CITY           SKY/WX    TMP DP  RH WIND       PRES   REMARKS
MONTEVIDEO     CLOUDY    23  18  80 NE21G26   29.94S WCI   8
GRANITE FALLS  CLOUDY    26  17  71 N23G29    29.91S WCI  11
CANBY          CLOUDY    24  18  79 N18G28    29.94S WCI   9
MARSHALL       CLOUDY    23  18  81 N23G31    29.88R WCI   7
REDWOOD FALLS  CLOUDY    25  15  66 N14G28    29.86F WCI  13
OLIVIA         MOCLDY    27  18  69 N23G30    29.87S WCI  12
PIPESTONE      CLOUDY    23  16  74 NE24G31   29.82S WCI   7
WINDOM         CLOUDY    25  19  80 N23G30    29.77R WCI  10
WORTHINGTON    LGT SNOW  23  19  85 N25G32    29.77R FOG     WCI   7
JACKSON        MIX PCPN  25  21  86 N26G33    29.75R WCI   9
TRACY          CLOUDY    25  20  80 N24       29.84S WCI  10
SLAYTON        CLOUDY    22  19  88 N25G37    29.81R FOG     WCI   6
$$
MNZ065>067-074>077-082>085-091>093-241200-
   South Central Minnesota

CITY           SKY/WX    TMP DP  RH WIND       PRES   REMARKS
MANKATO        FLURRIES  26  20  77 N24       29.76  WCI  11
NEW ULM        CLOUDY    25  16  68 N15G26    29.79S WCI  12
ST JAMES         N/A     25  19  80 N21G30    29.79R WCI  10
FAIRMONT       LGT SNOW  25  23  92 N21       29.73R FOG     WCI  11
GLENCOE        CLOUDY    26  20  79 N17G25    29.80F WCI  13
FARIBAULT      LGT SNOW  27  25  93 N14G28    29.75F WCI  15
OWATONNA         N/A     27  23  86 N18G25    29.72F WCI  13
WASECA         CLOUDY    27  23  86 N22G28    29.74R WCI  12
ALBERT LEA     LGT SNOW  27  27 100 N21G26    29.69R WCI  13
$$
MNZ078>079-086>088-094>096-241200-
   Southeast Minnesota

CITY           SKY/WX    TMP DP  RH WIND       PRES   REMARKS
ROCHESTER      FOG       27  26  96 NE24G32   29.67F VSB 1   WCI  12
RED WING       LGT SNOW  28  25  86 N10       29.79F VSB 3/4 WCI  19
STANTON        LGT SNOW  27  25  90 N22G29    29.77F VSB 3/4 WCI  13
DODGE CENTER   CLOUDY    27  25  93 N21       29.69F WCI  13
WINONA         LGT SNOW  30  30 100 NE6       29.76F VSB 1   WCI  24
AUSTIN           N/A     27  25  93 NE18G25   29.67R WCI  13
PRESTON          N/A     27  26  93 NE20G29   29.65F WCI  14
$$
ABBREVIATIONS USED IN REMARKS
   TC - TEMPERATURES IN CELSIUS
  WCI - WIND CHILL INDEX
   HX - HEAT INDEX
  VSB - VISIBILITY
$$




USA.gov is the U.S. government's official web portal to all federal, state and local government web resources and services.